OBJECT AE, 63238

Orbit data source: Space-Track

You're viewing an Uncataloged Satellite

Recently launched and/or uncataloged satellites may have evolving metadata. Metadata may include but not limited to: Owner, Maufacturer, Bus, Motor, and Mission.

OBJECT AE, 63238 is a satellite in SSO that was launched on Sat, 15 Mar 2025 UTC via an FALCON 9 launch vehicle from the Air Force Western Test Range (AFWTR). Unknown objects in Earth's orbit typically refer to objects detected orbiting the Earth but have not yet been identified or cataloged. These objects could be anything from previously untracked satellites, spent rocket stages, debris from satellite collisions, or even natural meteoroids temporarily captured by Earth's gravity.

Loading next visibility...
Identifier
63238, 2025-052AE
Orbit
SSO
Last TLE update
16 hours ago
Origin
Flag of TBDMITRE (TBD)
Manufacturer
Astro Digital
Mission
Operational Commercial Weather
Bus & Motor
CORVUS-MICRO, Unknown motor
Mass
32 kg wet, 32 kg dry
Launch date (UTC)
2025-03-15 (3 months ago)
Launch vehicle
FALCON 9
Launch site
Air Force Western Test Range (AFWTR)
Object type
Unknown
Shape & HBR
Box + 2 Pan, 1.2 m
Radar Cross Section
0.138 m², Small (<0.1 m²)

Expand to show TLE details & history

TLE from 16 hours ago
0 OBJECT AE
1 63238U 25052AE  25169.64426840  .00008967  00000-0  42852-3 0  9997
2 63238  97.4358  63.3605 0007880 358.1201   2.0002 15.19218803 14610
Epoch: 2025-06-18T15:27Z
TLE epoch observation values (Epoch: 2025-06-18T15:27:44.789Z)
Latitude
-0.0001°
Longitude
-75.69946°
Altitude
505.864 km
Speed
7.614 km/s
True Right ascension
04h 13m 26s
True Declination
0° 00' 00"
Sunlit
Object was in daylight at epoch
Visualization orbit readout
Latitude
11.97849°
Longitude
-76.62694°
Altitude
505.278 km
Speed
7.615 km/s
Apparent Right ascension
05h 00m 09s
Apparent Declination
-13° 15' 53"
Sunlit
Object is in daylight
Visualization observer readout
Local Sidereal Time
18:09:59
Azimuth
34.822° NE
Elevation
-59.245°
Doppler factor
1
Orbital elements
Apogee altitude
510.592 km
Perigee altitude
499.744 km
Semi-major axis
6,883.305 km
Eccentricity
0.00079
Inclination
97.4358°
RAAN
63.3605°
Arg. of periapsis
358.1201°
True anomaly
Unknown
Mean anomaly
2.0002°
Eccentric anomaly
Unknown
Mean motion
3.80056 °/min
Orbital period
94.72 mins
BSTAR
0.00042852
Loading maneuver chart data...
Loading SW <> Apogee altitude chart data...
Loading historical data...
Loading historical data...
Loading historical data...
Loading historical data...
Loading historical data...
Loading historical data...
Loading historical data...

OBJECT AE Visibility forecast

Observer location: undefined°, undefined°

Span
Click to sort rows by Start time (UTC) header in descending order
Start Az.
Max El. time (UTC)
Max El. Az.
Max El.
End time (UTC)
End Az.
7 mins2025-06-19 16:52:21.605Z162.722° S2025-06-19 16:56:21.605Z12.522° NNE42.146°2025-06-19 16:59:21.605Z350.959° N
5 mins2025-06-20 05:58:21.605Z1.537° NNE2025-06-20 06:00:21.605Z315.318° NNW41.411°2025-06-20 06:03:21.605Z205.055° SW
|